Regional Weather Roundup
Issued by NWS Kansas City/Pleasant Hill, MO

Home | Current Version | Previous Version | Text Only | Print | Product List | Glossary On
Versions: 1 2 3 4 5 6 7 8 9 10 11 12 13 14 15 16 17 18 19 20 21 22 23 24 25 26 27 28 29 30 31 32 33 34 35 36 37 38 39 40 41 42 43 44 45 46 47 48 49 50
000
ASUS43 KEAX 260710
RWREAX

WEATHER ROUNDUP FOR EASTERN KANSAS AND NORTHWEST MISSOURI
NATIONAL WEATHER SERVICE KANSAS CITY/PLEASANT HILL MO
200 AM CDT MON JUN 26 2017

KSZ040-057-103>105-MOZ028-029-037-043-260800-
...KANSAS CITY METROPOLITAN AREA...

CITY           SKY/WX    TMP DP  RH WIND       PRES   REMARKS
K.C. INTL      PTCLDY    50  49  96 S8        30.22F
K.C. DOWNTOWN  CLEAR     58  54  86 SW5       30.22F
LEES SUMMIT    CLEAR     56  51  84 SW3       30.25S
OLATHE - IXD   MOCLDY    56  54  93 CALM      30.25F
OLATHE - OJC   PTCLDY    55  53  93 CALM      30.24F
LAWRENCE       PTCLDY    53  53 100 SE5       30.23F

$$

MOZ001>008-011>017-020>025-030>033-038>040-044>046-053-054-260800-
...NORTHERN AND CENTRAL MISSOURI...

CITY           SKY/WX    TMP DP  RH WIND       PRES   REMARKS
ST. JOSEPH       N/A     53  53 100 MISG      30.23S
MOSBY          SUNNY     52  52 100 CALM      30.22F
WARRENSBURG    PTCLDY    54  50  87 NW5       30.24S
WHITEMAN AFB   PTCLDY    54  54 100 CALM      30.23S
CLINTON        MOCLDY    59  54  82 MISG      30.24F
SEDALIA        CLEAR     56  53  90 W5        30.24F
WARSAW         NOT AVBL
CHILLICOTHE      N/A     53  50  89 CALM      30.22F
KIRKSVILLE     CLEAR     51  49  92 SW5       30.21F

$$

MOZ041-047>049-056>058-063>065-088>090-097-260800-
...EASTERN AND SOUTHERN MISSOURI...

CITY           SKY/WX    TMP DP  RH WIND       PRES   REMARKS
ST. LOUIS INTL CLEAR     62  50  64 SW5       30.21S
SPIRIT OF STL  CLEAR     55  53  93 W5        30.20S
COLUMBIA       CLEAR     58  50  75 W5        30.23S
JEFFERSON CITY CLEAR     57  51  80 CALM      30.23R
ROLLA          CLOUDY    60  49  66 NW6       30.22S
OSAGE BEACH    CLOUDY    60  53  77 N3        30.24F
SPRINGFIELD    CLOUDY    68  55  63 NE5       30.23S
BRANSON        CLEAR     63  57  82 CALM      30.25S
JOPLIN         CLOUDY    66  61  84 N8        30.24S
WEST PLAINS    CLOUDY    67  53  61 NE6       30.23S

$$

IAZ060-094-KSZ022-034>040-054-083-096-NEZ052-066-093-260800-
...KANSAS...SOUTHEAST NEBRASKA AND IOWA...

CITY           SKY/WX    TMP DP  RH WIND       PRES   REMARKS
TOPEKA         CLEAR     56  56 100 CALM      30.23F
MANHATTAN      MOCLDY    59  57  93 W3        30.23F
EMPORIA        CLOUDY    61  59  93 NE3       30.25F
CHANUTE          N/A    N/A N/A N/A MISG      30.24F
WICHITA        CLOUDY    64  55  72 E6        30.23S
OMAHA          CLEAR     60  48  64 SE9       30.17F
LINCOLN        CLOUDY    61  49  64 SW6       30.20F
FALLS CITY     CLEAR     54  50  86 S5        30.19F
LAMONI         PTCLDY    57  47  69 SW5       30.20S
DES MOINES     CLEAR     56  51  84 CALM      30.18F

$$




USA.gov is the U.S. government's official web portal to all federal, state and local government web resources and services.